Regional Weather Roundup
Issued by NWS Memphis, TN

Home | Current Version | Previous Version | Text Only | Print | Product List | Glossary On
Versions: 1 2 3 4 5 6 7 8 9 10 11 12 13 14 15 16 17 18 19 20 21 22 23 24 25 26 27 28 29 30 31 32 33 34 35 36 37 38 39 40 41 42 43 44 45 46 47 48 49 50
762
ASUS44 KMEG 010110
RWRMEG
MEMPHIS CWA HOURLY WEATHER ROUNDUP
NATIONAL WEATHER SERVICE MEMPHIS TN
800 PM CDT SUN APR 30 2017

...WEST TENNESSEE...

CITY           SKY/WX    TMP DP  RH WIND       PRES   REMARKS
MEMPHIS INTL   CLOUDY    66  54  65 S14       29.72R
NWS MEMPHIS      N/A     65 N/A N/A MISG        N/A
JACKSON        CLOUDY    70  65  84 S15G23    29.70S
SOMERVILLE     CLOUDY    70  64  83 S13G20    29.70R
BOLIVAR        CLOUDY    70  64  83 S9G20     29.71R
LEXINGTON      CLOUDY    70  64  83 S12G21    29.72F
SAVANNAH       CLOUDY    70  64  83 S14       29.74F
UNION CITY     CLOUDY    70  66  88 S15       29.65R
HUNTINGDON     CLOUDY    72  64  78 S17       29.68F


...EASTERN ARKANSAS...

CITY           SKY/WX    TMP DP  RH WIND       PRES   REMARKS
JONESBORO      PTCLDY    62  51  67 SW16G32   29.68R
WEST MEMPHIS   CLOUDY    65  51  60 SW12G25   29.71R
BATESVILLE     CLEAR     59  43  55 SW16G23   29.68R
NEWPORT        PTCLDY    61  48  62 MISG      29.68R
WALNUT RIDGE   PTCLDY    63  50  63 S17       29.65R
BLYTHEVILLE    CLOUDY    65  59  81 SW17G25   29.67R
SEARCY         CLEAR     60  44  55 SW15G23   29.73R
STUTTGART      PTCLDY    61  43  51 SW23      29.76R
PINE BLUFF     CLEAR     60  48  64 SW13G22   29.77R
MONTICELLO     CLEAR     61  49  64 W9        29.80R


...NORTH MISSISSIPPI...

CITY           SKY/WX    TMP DP  RH WIND       PRES   REMARKS
TUPELO         CLOUDY    69  63  81 SE20G25   29.76F
OXFORD         CLOUDY    66  63  88 S8        29.77R
BATESVILLE     MOCLDY    64  57  77 SW12G21   29.77R
OLIVE BRANCH   MOCLDY   N/A N/A N/A SW15      29.72R
TUNICA         MOCLDY    63  52  67 SW13      29.75R
CLARKSDALE     MOCLDY    64  52  63 SW13G20   29.76R
CORINTH        CLOUDY    70  63  78 S14G23    29.73F
GREENWOOD      CLOUDY    66  57  72 SW10      29.79R
STARKVILLE     CLOUDY    68  64  88 S7        29.81F
GOLDEN TRIANGL CLOUDY    66  61  82 S13       29.78F


...SOUTHEAST MISSOURI...

CITY           SKY/WX    TMP DP  RH WIND       PRES   REMARKS
KENNETT        CLOUDY    66  57  72 SW14G21   29.64R
MALDEN         MOCLDY    64  55  72 SW15G21   29.64R
WEST PLAINS    PTCLDY    58  42  55 SW16G29   29.61R
POPLAR BLUFF   PTCLDY    64  49  57 S24G32    29.62R
CAPE GIRARDEAU LGT RAIN  64  59  83 SW17      29.60R


...NORTHWEST ALABAMA...

CITY           SKY/WX    TMP DP  RH WIND       PRES   REMARKS
MUSCLE SHOALS  CLOUDY    68  62  81 S12       29.83R


...MIDDLE TENNESSEE...

CITY           SKY/WX    TMP DP  RH WIND       PRES   REMARKS
NASHVILLE      CLOUDY    69  63  81 S13       29.79R
CLARKSVILLE    CLOUDY    69  61  75 S9        29.73F
COLUMBIA       CLEAR    N/A N/A N/A S8        29.77S


...WESTERN KENTUCKY...

CITY           SKY/WX    TMP DP  RH WIND       PRES   REMARKS
PADUCAH        LGT RAIN  70  64  81 S10G26    29.63R
FORT CAMPBELL  CLOUDY    69  63  81 S12G17    29.72F


...CENTRAL ARKANSAS...

CITY           SKY/WX    TMP DP  RH WIND       PRES   REMARKS
LITTLE ROCK    PTCLDY    58  44  60 SW15G24   29.74S


SKY/WX REPORTED AS FAIR MEANS FEW OR NO CLOUDS BELOW
12 THOUSAND FEET.





USA.gov is the U.S. government's official web portal to all federal, state and local government web resources and services.